COSMOS 2251 DEB

Satellite information

Favourite Embed

Satellite Type and Status

DEBRISIN ORBIT

Key statistics

Satellite COSMOS 2251 DEB at a glance.

Uptime

11710

Days in orbit

Revolutions

≈ 14.3

Per day

Orbit

LEO

Low Earth Orbit

Inclination

73.9

Latest

Satellite identification and parameters

Extended collection of information and parameters for COSMOS 2251 DEB.

Object identification

Identified? True

Debris? True

Object name: COSMOS 2251 DEB

International designator: 1993-036DJ

Object number (NORAD): 33905

Object ID (CCSDS): 33905

Country: COMMONWEALTH OF INDEPENDENT STATES (CIS)

Current information (Y/N): Y

RCS size: SMALL

Orbital parameters

Period: 100.373 minutes

Inclination: 73.8856 deg

SMA: 7154.37 km

Apoapsis: 816.995 km

Periapsis: 735.475 km

RAAN: 250.9078 deg

Eccentricy: 0.0056972

Argument of periapsis: 171.602 deg

Mean anomaly: 313.8679 deg

Mean motion: 14.34649066 rev/day

Mean motion (dot): 0.00001039 rev/day2

B* drag term: 0.00037024 1/REarth

Two-line elements (TLE)

Creation date: July 6, 2025, 6:05 p.m.

Reference frame: TEME

Reference center: EARTH

Epoch: July 6, 2025, 3:20 p.m. UTC

TLE line 0: 0 COSMOS 2251 DEB

TLE line 1: 1 33905U 93036DJ 25187.63889932 .00001039 00000-0 37024-3 0 9994

TLE line 2: 2 33905 73.8856 250.9078 0056972 171.6020 313.8679 14.34649066854058

Live tracking on map

Real-time ground track for satellite COSMOS 2251 DEB.

In-orbit conjunctions

A list of the most updated potential collisions computed for object COSMOS 2251 DEB.

Target Orbit TCA Probability of collision Miss distance Type
DELTA 1 DEB SSO 2025-05-27 07:05:10 0.0001039556 748.0 (m) DEBRIS
CZ-6A DEB SSO 2024-09-02 16:38:44 0.00015103 282.0 (m) DEBRIS
NOAA 16 DEB SSO 2024-08-07 02:09:52 0.001008974 23.0 (m) DEBRIS

Associated space launch

Military communications satellite. Destroyed in a collision with Iridium 33.

COSMOS 2251 DEB was lifted into orbit during the mission ‘Kosmos-3M | Strela-2M 51’, on board a Kosmos-3M space rocket.

The launch took place on June 16, 1993, 4:17 a.m. from 132/1 (132L).

For more information about the launch, click the button.

Launch to space Kosmos-3M | Strela-2M 51
Kosmos-3M | Strela-2M 51

Agency: N/A

Status: Launch Successful

Launch date: June 16, 1993, 4:17 a.m. UTC

Rocket: Kosmos-3M

Launch pad: 132/1 (132L)

Location: Plesetsk Cosmodrome, Russian Federation

...

Latest news about this satellite

There are no fresh news available about this satellite. Check back as we update our databases every day.


Newsletter sign-up

Weekly statistics, charts and insights to help you stay on top of the space industry.